| time (UTC) | temp C | wind direction | speed KPH | gust KPH | rain 1hr cm | rain 24hr cm | rain mn cm | humidity % | barometer mb |
| 20260507081912 | 1 | 267 | 0.0 | 0.0 | 0.00 | 0.00 | 0.00 | 99 | 1010.1 |
| 20260507081408 | 1 | 264 | 0.0 | 0.0 | 0.00 | 0.00 | 0.00 | 99 | 1010.2 |
| 20260507080905 | 1 | 255 | 0.0 | 0.0 | 0.00 | 0.00 | 0.00 | 99 | 1009.9 |
| 20260507080402 | 1 | 246 | 0.0 | 1.6 | 0.00 | 0.00 | 0.00 | 99 | 1009.8 |
| 20260507075857 | 1 | 255 | 0.0 | 0.0 | 0.00 | 0.00 | 0.00 | 99 | 1010.0 |
| 20260507075353 | 1 | 262 | 0.0 | 0.0 | 0.00 | 0.00 | 0.00 | 99 | 1010.2 |
| 20260507074850 | 1 | 263 | 0.0 | 0.0 | 0.00 | 0.00 | 0.00 | 99 | 1010.1 |
| 20260507074347 | 2 | 266 | 0.0 | 0.0 | 0.00 | 0.00 | 0.00 | 99 | 1010.3 |
| 20260507073844 | 2 | 256 | 0.0 | 0.0 | 0.00 | 0.00 | 0.00 | 99 | 1010.2 |
| 20260507073341 | 2 | 257 | 0.0 | 0.0 | 0.00 | 0.00 | 0.00 | 99 | 1010.2 |
| 20260507072838 | 2 | 262 | 0.0 | 0.0 | 0.00 | 0.00 | 0.00 | 98 | 1010.2 |
| 20260507072336 | 2 | 262 | 0.0 | 0.0 | 0.00 | 0.00 | 0.00 | 98 | 1010.4 |
| 20260507071833 | 2 | 263 | 0.0 | 0.0 | 0.00 | 0.00 | 0.00 | 98 | 1010.4 |
| 20260507071330 | 2 | 265 | 0.0 | 0.0 | 0.00 | 0.00 | 0.00 | 98 | 1010.3 |
| 20260507070826 | 2 | 265 | 0.0 | 0.0 | 0.00 | 0.00 | 0.00 | 97 | 1010.3 |
| 20260507070324 | 2 | 262 | 0.0 | 0.0 | 0.00 | 0.00 | 0.00 | 97 | 1010.4 |
| 20260507065820 | 3 | 260 | 0.0 | 0.0 | 0.00 | 0.00 | 0.00 | 97 | 1010.6 |
| 20260507065317 | 3 | 266 | 0.0 | 0.0 | 0.00 | 0.00 | 0.00 | 97 | 1010.5 |
| 20260507064814 | 3 | 264 | 0.0 | 0.0 | 0.00 | 0.00 | 0.00 | 96 | 1010.3 |
| 20260507064313 | 3 | 262 | 0.0 | 0.0 | 0.00 | 0.00 | 0.00 | 96 | 1010.3 |
| 20260507063810 | 4 | 264 | 0.0 | 0.0 | 0.00 | 0.00 | 0.00 | 96 | 1010.1 |
| 20260507063307 | 4 | 266 | 0.0 | 0.0 | 0.00 | 0.00 | 0.00 | 95 | 1010.1 |
| 20260507062803 | 4 | 266 | 0.0 | 0.0 | 0.00 | 0.00 | 0.00 | 95 | 1010.2 |
| 20260507062301 | 4 | 263 | 0.0 | 0.0 | 0.00 | 0.00 | 0.00 | 94 | 1010.1 |
| 20260507061759 | 5 | 264 | 0.0 | 0.0 | 0.00 | 0.00 | 0.00 | 94 | 1010.3 |
| 20260507061256 | 5 | 258 | 0.0 | 0.0 | 0.00 | 0.00 | 0.00 | 94 | 1010.2 |
| 20260507060754 | 5 | 258 | 0.0 | 0.0 | 0.00 | 0.00 | 0.00 | 93 | 1010.1 |
| 20260507060250 | 5 | 261 | 0.0 | 0.0 | 0.00 | 0.00 | 0.00 | 92 | 1010.6 |
| 20260507055747 | 5 | 262 | 0.0 | 0.0 | 0.00 | 0.00 | 0.00 | 92 | 1010.7 |
| 20260507055242 | 5 | 255 | 0.0 | 0.0 | 0.00 | 0.00 | 0.00 | 92 | 1010.5 |
| 20260507054739 | 5 | 264 | 0.0 | 0.0 | 0.00 | 0.00 | 0.00 | 93 | 1010.6 |
| 20260507054236 | 5 | 262 | 0.0 | 0.0 | 0.00 | 0.00 | 0.00 | 93 | 1010.6 |
| 20260507053733 | 5 | 267 | 0.0 | 0.0 | 0.00 | 0.00 | 0.00 | 93 | 1010.9 |
| 20260507053231 | 5 | 264 | 0.0 | 0.0 | 0.00 | 0.00 | 0.00 | 93 | 1010.7 |
| 20260507052730 | 5 | 263 | 0.0 | 0.0 | 0.00 | 0.00 | 0.00 | 93 | 1010.9 |
| 20260507052225 | 5 | 264 | 0.0 | 0.0 | 0.00 | 0.00 | 0.00 | 92 | 1010.6 |
| 20260507051724 | 5 | 268 | 0.0 | 0.0 | 0.00 | 0.00 | 0.00 | 91 | 1010.8 |
| 20260507051220 | 5 | 264 | 0.0 | 0.0 | 0.00 | 0.00 | 0.00 | 91 | 1011.0 |
| 20260507050716 | 5 | 261 | 0.0 | 0.0 | 0.00 | 0.00 | 0.00 | 91 | 1010.9 |
| 20260507050208 | 5 | 262 | 0.0 | 0.0 | 0.00 | 0.00 | 0.00 | 92 | 1010.9 |
| 20260507045705 | 5 | 262 | 0.0 | 0.0 | 0.00 | 0.00 | 0.00 | 92 | 1010.9 |
| 20260507045201 | 5 | 280 | 0.0 | 1.6 | 0.00 | 0.00 | 0.00 | 92 | 1011.1 |
| 20260507044658 | 5 | 264 | 0.0 | 0.0 | 0.00 | 0.00 | 0.00 | 92 | 1010.8 |
| 20260507044155 | 5 | 263 | 0.0 | 0.0 | 0.00 | 0.00 | 0.00 | 91 | 1011.2 |
| 20260507043651 | 5 | 273 | 0.0 | 1.6 | 0.00 | 0.00 | 0.00 | 92 | 1010.8 |
| 20260507043148 | 5 | 266 | 0.0 | 0.0 | 0.00 | 0.00 | 0.00 | 91 | 1010.9 |
| 20260507042644 | 5 | 297 | 3.2 | 3.2 | 0.00 | 0.00 | 0.00 | 92 | 1010.9 |
| 20260507042139 | 5 | 266 | 0.0 | 0.0 | 0.00 | 0.00 | 0.00 | 93 | 1010.8 |
| 20260507041637 | 5 | 277 | 1.6 | 3.2 | 0.00 | 0.00 | 0.00 | 94 | 1010.7 |
| 20260507041133 | 5 | 277 | 1.6 | 1.6 | 0.00 | 0.00 | 0.00 | 95 | 1010.7 |
| 20260507040630 | 5 | 280 | 0.0 | 0.0 | 0.00 | 0.00 | 0.00 | 95 | 1010.6 |
| 20260507040127 | 5 | 276 | 1.6 | 1.6 | 0.00 | 0.00 | 0.00 | 97 | 1010.6 |
| 20260507035622 | 5 | 281 | 3.2 | 3.2 | 0.00 | 0.20 | 0.20 | 97 | 1010.7 |
| 20260507035119 | 5 | 282 | 0.0 | 0.0 | 0.00 | 0.20 | 0.20 | 98 | 1010.6 |
| 20260507034616 | 5 | 269 | 0.0 | 1.6 | 0.00 | 0.20 | 0.20 | 98 | 1010.7 |
| 20260507034113 | 5 | 270 | 0.0 | 0.0 | 0.00 | 0.20 | 0.20 | 98 | 1010.8 |
| 20260507033612 | 5 | 266 | 1.6 | 1.6 | 0.00 | 0.20 | 0.20 | 98 | 1010.7 |
| 20260507033108 | 5 | 274 | 1.6 | 1.6 | 0.00 | 0.20 | 0.20 | 98 | 1010.8 |
| 20260507032606 | 5 | 291 | 1.6 | 1.6 | 0.00 | 0.20 | 0.20 | 98 | 1010.4 |
| 20260507032101 | 5 | 248 | 0.0 | 0.0 | 0.00 | 0.20 | 0.20 | 98 | 1010.5 |
| 20260507031558 | 5 | 287 | 1.6 | 1.6 | 0.00 | 0.20 | 0.20 | 98 | 1010.4 |
| 20260507031055 | 5 | 253 | 0.0 | 0.0 | 0.00 | 0.20 | 0.20 | 98 | 1010.5 |
| 20260507030551 | 5 | 261 | 0.0 | 0.0 | 0.00 | 0.20 | 0.20 | 97 | 1010.4 |
| 20260507030049 | 5 | 278 | 0.0 | 0.0 | 0.00 | 0.20 | 0.20 | 97 | 1010.6 |
| 20260507025546 | 5 | 264 | 0.0 | 1.6 | 0.00 | 0.20 | 0.20 | 97 | 1010.2 |
| 20260507025043 | 5 | 266 | 0.0 | 0.0 | 0.00 | 0.20 | 0.20 | 97 | 1010.1 |
| 20260507024541 | 5 | 257 | 0.0 | 0.0 | 0.00 | 0.20 | 0.20 | 97 | 1010.5 |
| 20260507024037 | 5 | 271 | 0.0 | 0.0 | 0.00 | 0.20 | 0.20 | 97 | 1010.4 |
| 20260507023533 | 5 | 265 | 0.0 | 0.0 | 0.00 | 0.20 | 0.20 | 97 | 1010.5 |
| 20260507023031 | 6 | 265 | 0.0 | 0.0 | 0.00 | 0.20 | 0.20 | 97 | 1010.4 |
| 20260507022528 | 6 | 262 | 0.0 | 0.0 | 0.00 | 0.20 | 0.20 | 97 | 1010.5 |
| 20260507022023 | 6 | 213 | 0.0 | 1.6 | 0.00 | 0.20 | 0.20 | 97 | 1010.3 |
| 20260507021519 | 6 | 258 | 0.0 | 0.0 | 0.00 | 0.20 | 0.20 | 97 | 1010.6 |
| 20260507021016 | 6 | 262 | 0.0 | 0.0 | 0.00 | 0.20 | 0.20 | 96 | 1010.3 |
| 20260507020514 | 6 | 265 | 0.0 | 0.0 | 0.00 | 0.20 | 0.20 | 96 | 1010.4 |
| 20260507020010 | 6 | 263 | 0.0 | 0.0 | 0.00 | 0.20 | 0.20 | 96 | 1010.6 |
| 20260507015509 | 6 | 277 | 0.0 | 1.6 | 0.00 | 0.20 | 0.20 | 96 | 1010.7 |
| 20260507015006 | 6 | 304 | 3.2 | 3.2 | 0.00 | 0.20 | 0.20 | 96 | 1010.6 |
| 20260507014502 | 6 | 306 | 3.2 | 3.2 | 0.00 | 0.20 | 0.20 | 97 | 1010.7 |
| 20260507013958 | 6 | 265 | 0.0 | 0.0 | 0.00 | 0.20 | 0.20 | 97 | 1010.3 |
| 20260507013455 | 6 | 272 | 0.0 | 0.0 | 0.00 | 0.20 | 0.20 | 97 | 1010.3 |
| 20260507012952 | 6 | 272 | 0.0 | 1.6 | 0.00 | 0.20 | 0.20 | 97 | 1010.5 |
| 20260507012449 | 6 | 288 | 1.6 | 1.6 | 0.00 | 0.20 | 0.20 | 97 | 1010.6 |
| 20260507011945 | 6 | 263 | 3.2 | 3.2 | 0.00 | 0.20 | 0.20 | 97 | 1010.7 |
| 20260507011443 | 6 | 289 | 3.2 | 3.2 | 0.00 | 0.20 | 0.20 | 96 | 1010.5 |
| 20260507010938 | 6 | 285 | 1.6 | 3.2 | 0.00 | 0.20 | 0.20 | 96 | 1010.6 |
| 20260507010433 | 6 | 320 | 3.2 | 4.8 | 0.00 | 0.20 | 0.20 | 96 | 1010.5 |
| 20260507005930 | 6 | 264 | 3.2 | 3.2 | 0.00 | 0.20 | 0.20 | 96 | 1010.5 |
| 20260507005427 | 6 | 256 | 1.6 | 1.6 | 0.00 | 0.20 | 0.20 | 96 | 1010.3 |
| 20260507004924 | 6 | 281 | 1.6 | 1.6 | 0.00 | 0.20 | 0.20 | 96 | 1010.2 |
| 20260507004420 | 6 | 300 | 1.6 | 1.6 | 0.00 | 0.20 | 0.20 | 96 | 1010.1 |
| 20260507003918 | 6 | 296 | 1.6 | 1.6 | 0.00 | 0.20 | 0.20 | 96 | 1010.0 |
| 20260507003413 | 6 | 282 | 1.6 | 1.6 | 0.00 | 0.20 | 0.20 | 96 | 1009.6 |
| 20260507002908 | 6 | 296 | 3.2 | 3.2 | 0.00 | 0.20 | 0.20 | 96 | 1009.5 |
| 20260507002405 | 6 | 344 | 1.6 | 1.6 | 0.00 | 0.20 | 0.20 | 95 | 1009.4 |
| 20260507001902 | 6 | 286 | 3.2 | 4.8 | 0.00 | 0.20 | 0.20 | 95 | 1009.6 |
| 20260507001359 | 6 | 299 | 6.4 | 8.0 | 0.00 | 0.20 | 0.20 | 95 | 1009.6 |
| 20260507000856 | 7 | 303 | 4.8 | 4.8 | 0.00 | 0.20 | 0.20 | 95 | 1009.4 |
| 20260507000351 | 7 | 293 | 6.4 | 11.3 | 0.00 | 0.20 | 0.20 | 95 | 1009.3 |
| 20260506235847 | 7 | 295 | 4.8 | 4.8 | 0.00 | 0.20 | 0.20 | 94 | 1008.9 |
| 20260506235345 | 8 | 268 | 11.3 | 14.5 | 0.00 | 0.20 | 0.20 | 93 | 1009.2 |
| 20260506234840 | 8 | 271 | 1.6 | 1.6 | 0.00 | 0.20 | 0.20 | 92 | 1009.1 |
| 20260506234338 | 8 | 299 | 3.2 | 3.2 | 0.00 | 0.20 | 0.20 | 92 | 1009.0 |
| 20260506233836 | 8 | 250 | 3.2 | 3.2 | 0.00 | 0.20 | 0.20 | 92 | 1009.0 |
| 20260506233331 | 8 | 315 | 3.2 | 4.8 | 0.00 | 0.20 | 0.20 | 93 | 1009.0 |
| 20260506232829 | 9 | 248 | 4.8 | 8.0 | 0.00 | 0.20 | 0.20 | 94 | 1008.7 |
| 20260506232324 | 9 | 257 | 0.0 | 0.0 | 0.00 | 0.20 | 0.20 | 93 | 1008.3 |
| 20260506231821 | 9 | 260 | 0.0 | 0.0 | 0.00 | 0.20 | 0.20 | 92 | 1008.3 |
| 20260506231319 | 9 | 261 | 0.0 | 0.0 | 0.00 | 0.20 | 0.20 | 93 | 1008.2 |
| 20260506230816 | 9 | 258 | 0.0 | 0.0 | 0.00 | 0.20 | 0.20 | 92 | 1008.4 |
| 20260506230313 | 9 | 261 | 0.0 | 0.0 | 0.00 | 0.20 | 0.20 | 91 | 1008.3 |
| 20260506225809 | 9 | 237 | 1.6 | 1.6 | 0.00 | 0.20 | 0.20 | 90 | 1008.5 |
| 20260506225306 | 10 | 261 | 0.0 | 0.0 | 0.00 | 0.20 | 0.20 | 91 | 1008.1 |
| 20260506224803 | 10 | 261 | 0.0 | 0.0 | 0.00 | 0.20 | 0.20 | 89 | 1008.2 |
| 20260506224300 | 10 | 254 | 0.0 | 0.0 | 0.00 | 0.20 | 0.20 | 89 | 1008.1 |
| 20260506223756 | 9 | 263 | 0.0 | 0.0 | 0.00 | 0.20 | 0.20 | 90 | 1008.2 |
| 20260506223252 | 10 | 224 | 0.0 | 0.0 | 0.00 | 0.20 | 0.20 | 89 | 1007.8 |
| 20260506222749 | 10 | 265 | 0.0 | 1.6 | 0.00 | 0.20 | 0.20 | 89 | 1008.1 |
| 20260506222244 | 10 | 226 | 1.6 | 1.6 | 0.00 | 0.20 | 0.20 | 88 | 1008.1 |
| 20260506221737 | 10 | 278 | 0.0 | 1.6 | 0.00 | 0.20 | 0.20 | 88 | 1008.1 |
| 20260506221235 | 10 | 260 | 0.0 | 0.0 | 0.00 | 0.20 | 0.20 | 89 | 1007.9 |
| 20260506220731 | 9 | 229 | 0.0 | 1.6 | 0.00 | 0.20 | 0.20 | 89 | 1008.0 |
| 20260506220226 | 10 | 269 | 0.0 | 0.0 | 0.00 | 0.20 | 0.20 | 88 | 1008.1 |
| 20260506215723 | 9 | 279 | 0.0 | 0.0 | 0.00 | 0.20 | 0.20 | 89 | 1007.9 |
| 20260506215219 | 9 | 233 | 3.2 | 3.2 | 0.00 | 0.20 | 0.20 | 88 | 1007.9 |
| 20260506214716 | 8 | 265 | 0.0 | 0.0 | 0.00 | 0.20 | 0.20 | 88 | 1007.9 |
| 20260506214213 | 9 | 274 | 1.6 | 1.6 | 0.00 | 0.20 | 0.20 | 91 | 1007.7 |
| 20260506213711 | 9 | 255 | 0.0 | 0.0 | 0.00 | 0.20 | 0.20 | 91 | 1007.7 |
| 20260506213208 | 10 | 239 | 0.0 | 0.0 | 0.00 | 0.20 | 0.20 | 89 | 1007.9 |
| 20260506212705 | 9 | 263 | 0.0 | 0.0 | 0.00 | 0.20 | 0.20 | 87 | 1008.0 |
| 20260506212200 | 9 | 247 | 1.6 | 1.6 | 0.00 | 0.20 | 0.20 | 86 | 1008.0 |
| 20260506211656 | 9 | 260 | 0.0 | 0.0 | 0.00 | 0.20 | 0.20 | 88 | 1007.8 |
| 20260506211153 | 10 | 231 | 0.0 | 0.0 | 0.00 | 0.20 | 0.20 | 88 | 1007.9 |
| 20260506210650 | 10 | 269 | 1.6 | 1.6 | 0.00 | 0.20 | 0.20 | 86 | 1008.0 |
| 20260506210146 | 10 | 314 | 4.8 | 4.8 | 0.00 | 0.20 | 0.20 | 85 | 1008.0 |
| 20260506205644 | 10 | 267 | 0.0 | 1.6 | 0.00 | 0.20 | 0.20 | 86 | 1008.1 |
| 20260506205138 | 10 | 243 | 1.6 | 1.6 | 0.00 | 0.20 | 0.20 | 87 | 1008.0 |
| 20260506204637 | 10 | 277 | 1.6 | 1.6 | 0.00 | 0.20 | 0.20 | 89 | 1007.9 |
| 20260506204133 | 10 | 329 | 0.0 | 1.6 | 0.00 | 0.20 | 0.20 | 87 | 1007.8 |
| 20260506203631 | 9 | 270 | 1.6 | 1.6 | 0.00 | 0.20 | 0.20 | 87 | 1007.8 |
| 20260506203128 | 8 | 243 | 1.6 | 1.6 | 0.00 | 0.20 | 0.20 | 86 | 1008.0 |
| 20260506202626 | 8 | 268 | 0.0 | 0.0 | 0.00 | 0.20 | 0.20 | 89 | 1008.1 |
| 20260506202122 | 8 | 243 | 1.6 | 3.2 | 0.00 | 0.20 | 0.20 | 88 | 1008.2 |
| 20260506201619 | 8 | 216 | 1.6 | 1.6 | 0.00 | 0.20 | 0.20 | 90 | 1007.9 |
| 20260506201115 | 8 | 266 | 0.0 | 1.6 | 0.00 | 0.20 | 0.20 | 89 | 1007.8 |
| 20260506200612 | 8 | 281 | 0.0 | 0.0 | 0.00 | 0.20 | 0.20 | 89 | 1007.8 |
| 20260506200109 | 8 | 279 | 1.6 | 1.6 | 0.00 | 0.20 | 0.20 | 91 | 1007.7 |
| 20260506195605 | 8 | 261 | 0.0 | 0.0 | 0.00 | 0.20 | 0.20 | 90 | 1007.8 |
| 20260506195102 | 8 | 271 | 1.6 | 1.6 | 0.00 | 0.20 | 0.20 | 90 | 1008.0 |
| 20260506194559 | 8 | 320 | 1.6 | 1.6 | 0.00 | 0.20 | 0.20 | 90 | 1008.1 |
| 20260506194055 | 8 | 267 | 0.0 | 0.0 | 0.00 | 0.20 | 0.20 | 90 | 1007.8 |
| 20260506193553 | 8 | 297 | 1.6 | 1.6 | 0.00 | 0.20 | 0.20 | 91 | 1007.9 |
| 20260506193050 | 8 | 321 | 1.6 | 1.6 | 0.00 | 0.20 | 0.20 | 90 | 1007.8 |
| 20260506192547 | 8 | 3 | 1.6 | 1.6 | 0.00 | 0.20 | 0.20 | 91 | 1007.7 |
| 20260506192043 | 7 | 276 | 1.6 | 1.6 | 0.00 | 0.20 | 0.20 | 91 | 1007.8 |
| 20260506191540 | 8 | 262 | 0.0 | 0.0 | 0.00 | 0.20 | 0.20 | 92 | 1007.9 |
| 20260506191036 | 7 | 286 | 0.0 | 1.6 | 0.00 | 0.20 | 0.20 | 93 | 1007.9 |
| 20260506190533 | 8 | 38 | 1.6 | 3.2 | 0.00 | 0.20 | 0.20 | 93 | 1007.7 |
| 20260506190030 | 8 | 290 | 1.6 | 3.2 | 0.00 | 0.20 | 0.20 | 93 | 1008.0 |
| 20260506185527 | 8 | 291 | 1.6 | 3.2 | 0.00 | 0.20 | 0.20 | 94 | 1008.2 |
| 20260506185024 | 8 | 267 | 0.0 | 1.6 | 0.00 | 0.20 | 0.20 | 94 | 1007.9 |
| 20260506184521 | 7 | 265 | 1.6 | 1.6 | 0.00 | 0.20 | 0.20 | 94 | 1007.8 |
| 20260506184018 | 8 | 328 | 3.2 | 3.2 | 0.00 | 0.20 | 0.20 | 95 | 1008.1 |
| 20260506183514 | 7 | 278 | 0.0 | 1.6 | 0.00 | 0.20 | 0.20 | 96 | 1007.9 |
| 20260506183011 | 7 | 264 | 1.6 | 3.2 | 0.00 | 0.20 | 0.20 | 96 | 1007.9 |
| 20260506182509 | 7 | 272 | 1.6 | 1.6 | 0.00 | 0.20 | 0.20 | 96 | 1007.8 |
| 20260506182005 | 7 | 282 | 3.2 | 4.8 | 0.00 | 0.20 | 0.20 | 96 | 1008.0 |
| 20260506181503 | 7 | 337 | 1.6 | 3.2 | 0.00 | 0.20 | 0.20 | 96 | 1008.0 |
| 20260506181000 | 7 | 265 | 0.0 | 1.6 | 0.00 | 0.20 | 0.20 | 96 | 1007.8 |
| 20260506180456 | 7 | 313 | 1.6 | 1.6 | 0.00 | 0.20 | 0.20 | 96 | 1008.0 |
| 20260506175953 | 7 | 290 | 1.6 | 1.6 | 0.00 | 0.20 | 0.20 | 96 | 1007.9 |
| 20260506175450 | 7 | 333 | 4.8 | 4.8 | 0.00 | 0.20 | 0.20 | 96 | 1008.0 |
| 20260506174946 | 7 | 293 | 0.0 | 1.6 | 0.00 | 0.20 | 0.20 | 97 | 1008.1 |
| 20260506174444 | 7 | 282 | 1.6 | 1.6 | 0.00 | 0.20 | 0.20 | 97 | 1007.9 |
| 20260506173940 | 7 | 278 | 1.6 | 1.6 | 0.00 | 0.20 | 0.20 | 97 | 1007.7 |
| 20260506173438 | 7 | 262 | 3.2 | 3.2 | 0.00 | 0.20 | 0.20 | 97 | 1007.6 |
| 20260506172934 | 7 | 299 | 1.6 | 1.6 | 0.00 | 0.20 | 0.20 | 98 | 1007.4 |
| 20260506172431 | 7 | 304 | 1.6 | 3.2 | 0.00 | 0.20 | 0.20 | 98 | 1007.5 |
| 20260506171923 | 7 | 311 | 3.2 | 3.2 | 0.00 | 0.20 | 0.20 | 99 | 1007.4 |
| 20260506171420 | 7 | 266 | 1.6 | 3.2 | 0.00 | 0.20 | 0.20 | 99 | 1007.3 |
| 20260506170918 | 8 | 55 | 1.6 | 3.2 | 0.00 | 0.20 | 0.20 | 99 | 1007.2 |
| 20260506170414 | 7 | 308 | 1.6 | 3.2 | 0.00 | 0.20 | 0.20 | 99 | 1007.2 |
| 20260506165913 | 7 | 322 | 3.2 | 3.2 | 0.00 | 0.20 | 0.20 | 99 | 1007.2 |
| 20260506165411 | 7 | 298 | 3.2 | 3.2 | 0.00 | 0.20 | 0.20 | 99 | 1007.3 |
| 20260506164906 | 7 | 271 | 1.6 | 1.6 | 0.00 | 0.20 | 0.20 | 99 | 1007.3 |
| 20260506164402 | 7 | 299 | 1.6 | 3.2 | 0.00 | 0.20 | 0.20 | 99 | 1007.4 |
| 20260506163856 | 7 | 319 | 1.6 | 1.6 | 0.00 | 0.20 | 0.20 | 99 | 1007.2 |
| 20260506163349 | 7 | 282 | 1.6 | 1.6 | 0.00 | 0.20 | 0.20 | 99 | 1007.2 |
| 20260506162844 | 7 | 270 | 1.6 | 1.6 | 0.00 | 0.20 | 0.20 | 99 | 1007.3 |
| 20260506162343 | 7 | 311 | 1.6 | 3.2 | 0.00 | 0.20 | 0.20 | 99 | 1006.9 |
| 20260506161835 | 7 | 74 | 1.6 | 3.2 | 0.00 | 0.20 | 0.20 | 99 | 1006.9 |
| 20260506161332 | 7 | 250 | 3.2 | 3.2 | 0.00 | 0.20 | 0.20 | 99 | 1007.1 |
| 20260506160829 | 7 | 264 | 0.0 | 0.0 | 0.00 | 0.20 | 0.20 | 99 | 1007.2 |
| 20260506160326 | 7 | 276 | 1.6 | 1.6 | 0.00 | 0.20 | 0.20 | 99 | 1007.3 |
| 20260506155825 | 6 | 326 | 0.0 | 0.0 | 0.00 | 0.20 | 0.20 | 99 | 1007.3 |
| 20260506155320 | 7 | 58 | 1.6 | 1.6 | 0.00 | 0.20 | 0.20 | 99 | 1007.4 |
| 20260506153433 | 7 | 269 | 0.0 | 1.6 | 0.00 | 0.20 | 0.20 | 99 | 1007.5 |
| 20260506152931 | 7 | 291 | 1.6 | 1.6 | 0.00 | 0.20 | 0.20 | 99 | 1007.2 |
| 20260506152427 | 7 | 258 | 0.0 | 0.0 | 0.00 | 0.20 | 0.20 | 99 | 1007.1 |
| 20260506151926 | 7 | 309 | 3.2 | 3.2 | 0.00 | 0.20 | 0.20 | 99 | 1007.0 |
| 20260506151422 | 7 | 309 | 1.6 | 1.6 | 0.00 | 0.20 | 0.20 | 99 | 1007.2 |
| 20260506150921 | 7 | 310 | 1.6 | 1.6 | 0.00 | 0.20 | 0.20 | 99 | 1007.1 |
| 20260506150416 | 6 | 286 | 1.6 | 1.6 | 0.00 | 0.20 | 0.20 | 99 | 1006.7 |
| 20260506145913 | 6 | 321 | 0.0 | 1.6 | 0.00 | 0.20 | 0.20 | 99 | 1007.3 |
| 20260506145409 | 7 | 255 | 0.0 | 0.0 | 0.13 | 0.20 | 0.20 | 99 | 1007.0 |
| 20260506144907 | 7 | 266 | 0.0 | 0.0 | 0.13 | 0.20 | 0.20 | 99 | 1007.1 |
| 20260506144403 | 7 | 287 | 0.0 | 1.6 | 0.00 | 0.18 | 0.18 | 99 | 1007.0 |
| 20260506143902 | 6 | 285 | 1.6 | 3.2 | 0.00 | 0.18 | 0.18 | 99 | 1006.6 |
| 20260506143358 | 6 | 288 | 1.6 | 1.6 | 0.00 | 0.18 | 0.18 | 99 | 1006.6 |
| 20260506142857 | 6 | 269 | 0.0 | 1.6 | 0.00 | 0.18 | 0.18 | 99 | 1006.4 |
| 20260506142354 | 6 | 223 | 0.0 | 0.0 | 0.00 | 0.18 | 0.18 | 99 | 1006.6 |
| 20260506141852 | 6 | 186 | 0.0 | 1.6 | 0.18 | 0.18 | 0.18 | 99 | 1007.0 |
| 20260506141350 | 6 | 288 | 0.0 | 1.6 | 0.18 | 0.18 | 0.18 | 99 | 1006.6 |
| 20260506140848 | 6 | 302 | 1.6 | 1.6 | 0.18 | 0.18 | 0.18 | 99 | 1006.6 |
| 20260506140344 | 6 | 257 | 0.0 | 1.6 | 0.00 | 0.15 | 0.15 | 99 | 1006.7 |
| 20260506135842 | 6 | 277 | 0.0 | 0.0 | 0.00 | 0.15 | 0.15 | 99 | 1006.4 |
| 20260506135338 | 6 | 257 | 0.0 | 0.0 | 0.13 | 0.15 | 0.15 | 99 | 1006.4 |
| 20260506134834 | 6 | 313 | 1.6 | 1.6 | 0.13 | 0.15 | 0.15 | 99 | 1006.9 |
| 20260506134331 | 6 | 265 | 0.0 | 0.0 | 0.00 | 0.13 | 0.13 | 99 | 1006.7 |
| 20260506133828 | 6 | 296 | 0.0 | 1.6 | 0.00 | 0.13 | 0.13 | 99 | 1006.5 |
| 20260506133325 | 6 | 262 | 0.0 | 1.6 | 0.00 | 0.13 | 0.13 | 99 | 1006.6 |
| 20260506132822 | 6 | 260 | 0.0 | 0.0 | 0.00 | 0.13 | 0.13 | 99 | 1006.5 |
| 20260506132319 | 6 | 279 | 0.0 | 1.6 | 0.00 | 0.13 | 0.13 | 99 | 1006.5 |
| 20260506131817 | 6 | 332 | 1.6 | 1.6 | 0.18 | 0.13 | 0.13 | 99 | 1006.7 |
| 20260506131313 | 6 | 24 | 1.6 | 1.6 | 0.18 | 0.13 | 0.13 | 99 | 1006.5 |
| 20260506130810 | 6 | 260 | 1.6 | 1.6 | 0.00 | 0.10 | 0.10 | 99 | 1006.5 |
| 20260506130306 | 6 | 248 | 0.0 | 1.6 | 0.00 | 0.10 | 0.10 | 99 | 1006.4 |
| 20260506125804 | 6 | 268 | 1.6 | 1.6 | 0.00 | 0.10 | 0.10 | 99 | 1006.3 |
| 20260506125305 | 6 | 249 | 0.0 | 1.6 | 0.00 | 0.10 | 0.10 | 99 | 1006.4 |
| 20260506124801 | 6 | 308 | 1.6 | 1.6 | 0.00 | 0.10 | 0.10 | 99 | 1006.4 |
| 20260506124257 | 6 | 353 | 1.6 | 1.6 | 0.13 | 0.10 | 0.10 | 99 | 1006.4 |
| 20260506123755 | 6 | 234 | 1.6 | 1.6 | 0.13 | 0.10 | 0.10 | 99 | 1006.6 |
| 20260506123254 | 6 | 257 | 0.0 | 0.0 | 0.00 | 0.08 | 0.08 | 99 | 1006.9 |
| 20260506122750 | 6 | 294 | 1.6 | 1.6 | 0.00 | 0.08 | 0.08 | 99 | 1006.7 |
| 20260506122247 | 6 | 355 | 1.6 | 3.2 | 0.00 | 0.08 | 0.08 | 99 | 1006.9 |
| 20260506121745 | 6 | 229 | 1.6 | 3.2 | 0.18 | 0.08 | 0.08 | 99 | 1006.7 |
| 20260506121242 | 6 | 278 | 0.0 | 1.6 | 0.18 | 0.08 | 0.08 | 99 | 1006.9 |
| 20260506120739 | 6 | 246 | 1.6 | 3.2 | 0.13 | 0.05 | 0.05 | 99 | 1006.9 |
| 20260506120237 | 6 | 71 | 1.6 | 1.6 | 0.13 | 0.05 | 0.05 | 99 | 1006.6 |
| 20260506115734 | 6 | 260 | 0.0 | 0.0 | 0.00 | 0.03 | 0.03 | 99 | 1006.7 |
| 20260506115233 | 6 | 236 | 1.6 | 1.6 | 0.18 | 0.03 | 0.03 | 99 | 1006.9 |
| 20260506114730 | 6 | 274 | 1.6 | 1.6 | 0.18 | 0.03 | 0.03 | 99 | 1006.6 |
| 20260506114227 | 6 | 270 | 1.6 | 1.6 | 0.00 | 1.83 | 1.83 | 99 | 1006.5 |
| 20260506113726 | 6 | 319 | 1.6 | 3.2 | 0.00 | 1.83 | 1.83 | 99 | 1006.4 |
| 20260506113223 | 6 | 340 | 4.8 | 4.8 | 0.00 | 1.83 | 1.83 | 99 | 1006.2 |
| 20260506112719 | 6 | 55 | 1.6 | 1.6 | 0.00 | 1.83 | 1.83 | 99 | 1005.9 |
| 20260506112217 | 6 | 335 | 1.6 | 3.2 | 0.00 | 1.83 | 1.83 | 99 | 1006.0 |
| 20260506111714 | 6 | 241 | 0.0 | 0.0 | 0.00 | 1.83 | 1.83 | 99 | 1006.1 |
| 20260506111212 | 6 | 318 | 1.6 | 1.6 | 0.13 | 1.83 | 1.83 | 99 | 1006.0 |
| 20260506110709 | 6 | 336 | 3.2 | 4.8 | 0.13 | 1.83 | 1.83 | 99 | 1006.0 |
| 20260506110206 | 6 | 321 | 1.6 | 3.2 | 0.00 | 1.80 | 1.80 | 99 | 1006.1 |
| 20260506105703 | 6 | 328 | 1.6 | 3.2 | 0.18 | 1.80 | 1.80 | 99 | 1005.7 |
| 20260506105200 | 6 | 263 | 0.0 | 1.6 | 0.18 | 1.80 | 1.80 | 99 | 1005.9 |
| 20260506104658 | 6 | 224 | 0.0 | 1.6 | 0.00 | 1.78 | 1.78 | 99 | 1006.1 |
| 20260506104155 | 6 | 245 | 1.6 | 1.6 | 0.18 | 1.78 | 1.78 | 99 | 1006.2 |
| 20260506103652 | 6 | 266 | 0.0 | 0.0 | 0.18 | 1.78 | 1.78 | 99 | 1006.2 |
| 20260506103149 | 6 | 292 | 0.0 | 0.0 | 0.13 | 1.75 | 1.75 | 99 | 1006.4 |
| 20260506102647 | 6 | 240 | 0.0 | 0.0 | 0.30 | 1.75 | 1.75 | 99 | 1006.7 |
| 20260506102144 | 6 | 34 | 3.2 | 3.2 | 0.18 | 1.73 | 1.73 | 99 | 1006.5 |
| 20260506101641 | 6 | 293 | 1.6 | 3.2 | 0.13 | 1.70 | 1.70 | 99 | 1006.3 |
| 20260506101138 | 6 | 96 | 6.4 | 8.0 | 0.30 | 1.70 | 1.70 | 99 | 1006.4 |
| 20260506100636 | 6 | 326 | 1.6 | 1.6 | 0.30 | 1.68 | 1.68 | 99 | 1006.4 |
| 20260506100134 | 6 | 346 | 1.6 | 1.6 | 0.13 | 1.65 | 1.65 | 99 | 1006.5 |
| 20260506095632 | 6 | 266 | 0.0 | 1.6 | 0.18 | 1.63 | 1.63 | 99 | 1006.3 |
| 20260506095129 | 6 | 323 | 1.6 | 1.6 | 0.30 | 1.63 | 1.63 | 99 | 1006.0 |
| 20260506094626 | 6 | 286 | 1.6 | 1.6 | 0.30 | 1.60 | 1.60 | 99 | 1006.1 |
| 20260506094124 | 6 | 300 | 1.6 | 1.6 | 0.30 | 1.57 | 1.57 | 99 | 1006.0 |
| 20260506093622 | 6 | 297 | 1.6 | 3.2 | 0.30 | 1.55 | 1.55 | 99 | 1005.9 |
| 20260506093119 | 6 | 10 | 1.6 | 1.6 | 0.36 | 1.52 | 1.52 | 99 | 1006.0 |
| 20260506092617 | 6 | 265 | 1.6 | 1.6 | 0.18 | 1.50 | 1.50 | 99 | 1006.3 |
| 20260506092114 | 6 | 327 | 1.6 | 1.6 | 0.30 | 1.50 | 1.50 | 99 | 1006.1 |
| 20260506091612 | 6 | 277 | 1.6 | 1.6 | 0.13 | 1.47 | 1.47 | 99 | 1006.0 |
| 20260506091109 | 6 | 285 | 1.6 | 1.6 | 0.18 | 1.45 | 1.45 | 99 | 1006.0 |
| 20260506090607 | 6 | 53 | 3.2 | 3.2 | 0.18 | 1.45 | 1.45 | 99 | 1005.8 |
| 20260506085600 | 6 | 270 | 1.6 | 1.6 | 0.13 | 1.42 | 1.42 | 99 | 1006.1 |
| 20260506085056 | 6 | 317 | 1.6 | 3.2 | 0.30 | 1.42 | 1.42 | 99 | 1005.9 |
| 20260506084553 | 6 | 333 | 4.8 | 4.8 | 0.30 | 1.40 | 1.40 | 99 | 1005.9 |
| 20260506084049 | 6 | 249 | 1.6 | 1.6 | 0.30 | 1.37 | 1.37 | 99 | 1006.0 |
| 20260506083546 | 7 | 299 | 1.6 | 1.6 | 0.30 | 1.35 | 1.35 | 99 | 1006.6 |
| 20260506083044 | 7 | 264 | 0.0 | 0.0 | 0.30 | 1.32 | 1.32 | 99 | 1006.5 |
| 20260506082540 | 7 | 88 | 3.2 | 4.8 | 0.18 | 1.30 | 1.30 | 99 | 1006.5 |
| 20260506082036 | 7 | 279 | 0.0 | 0.0 | 0.18 | 1.30 | 1.30 | 99 | 1005.9 |